Location: Heilwood
(40.6210°N, 78.9150°W)
Time: 15:48:43
(UTC-04:00)

BREEZE-M DEB (TANK) - Visible Passes

Search period start: 26 May 2018 00:00
Search period end: 05 June 2018 00:00
Orbit: 285 x 15822 km, 49.5° (Epoch: 25 May)

Date Brightness Start Highest point End Pass type
(mag) Time Alt. Az. Time Alt. Az. Time Alt. Az.
26 May 9.5 20:12:34 10° WNW 20:45:27 37° WSW 22:25:25 10° SSW visible
27 May 9.5 20:10:36 10° WNW 20:43:12 36° WSW 22:21:03 10° SSW visible
28 May 9.5 20:08:38 10° WNW 20:40:58 35° WSW 22:16:38 10° SSW visible
29 May 9.6 20:06:41 10° WNW 20:38:43 34° WSW 22:12:08 10° SSW visible
30 May 9.6 20:04:45 10° WNW 20:36:28 33° WSW 22:07:35 10° SSW visible
31 May 9.6 20:02:50 10° WNW 20:34:13 32° WSW 22:02:57 10° SSW visible
01 Jun 9.7 20:00:55 10° WNW 20:31:57 31° WSW 21:58:15 10° SSW visible
02 Jun 9.7 19:59:02 10° WNW 20:29:42 30° WSW 21:53:29 10° SSW visible
03 Jun 9.7 19:57:10 10° WNW 20:27:27 29° WSW 21:48:38 10° SSW visible
04 Jun 9.8 19:55:19 10° WNW 20:25:11 28° WSW 21:43:42 10° SW visible
